User: anonymous
Location: Hopkins Observatory
(42.6965°N, 73.1843°W)
Time: 10:01:56
(UTC-04:00)
Language:

RS-15 - Orbit

View from above orbital plane
View from above orbital plane
View from above satellite
View from above satellite

Ground track
Ground track

The orbit data is extracted from the following two-line orbital elements,

1 23439U 94085A   14229.50817057 -.00000039  00000-0  10000-3 0  6992
2 23439 064.8186 092.5706 0146031 070.6866 290.9786 11.27561741808915
Epoch (UTC): 17 August 2014 12:11:45
Eccentricity: 0.0146031
inclination: 64.8186°
perigee height: 1900 km
apogee height: 2145 km
right ascension of ascending node: 92.5706°
argument of perigee: 70.6866°
revolutions per day: 11.27561741
mean anomaly at epoch: 290.9786°
orbit number at epoch: 80891

The dashed part of the orbit path shows where the satellite is in the earth's shadow,  

DLR